TimeEST,TemperatureF,Dew PointF,Humidity,Sea Level PressureIn,VisibilityMPH,Wind Direction,Wind SpeedMPH,Gust SpeedMPH,PrecipitationIn,Events,Conditions,WindDirDegrees,DateUTC
12:52 AM,33.8,19.4,56,29.88,10.0,Calm,Calm,-,N/A,,Scattered Clouds,0,2013-02-05 05:52:00
1:52 AM,30.0,23.0,75,29.88,10.0,Calm,Calm,-,N/A,,Overcast,0,2013-02-05 06:52:00
2:52 AM,30.9,21.0,67,29.87,10.0,SSE,3.5,-,N/A,,Mostly Cloudy,150,2013-02-05 07:52:00
3:52 AM,28.9,21.0,72,29.86,10.0,Calm,Calm,-,N/A,,Mostly Cloudy,0,2013-02-05 08:52:00
4:52 AM,30.0,23.0,75,29.86,10.0,Calm,Calm,-,N/A,,Overcast,0,2013-02-05 09:52:00
5:52 AM,33.1,21.9,64,29.87,10.0,NNW,3.5,-,N/A,,Overcast,330,2013-02-05 10:52:00
6:52 AM,33.1,23.0,66,29.90,10.0,North,5.8,-,N/A,,Mostly Cloudy,350,2013-02-05 11:52:00
7:52 AM,34.0,21.9,61,29.91,10.0,Calm,Calm,-,N/A,,Mostly Cloudy,0,2013-02-05 12:52:00
8:52 AM,34.0,24.1,67,29.93,10.0,North,3.5,-,N/A,,Overcast,350,2013-02-05 13:52:00
9:52 AM,35.1,23.0,61,29.93,10.0,NE,3.5,-,N/A,,Overcast,40,2013-02-05 14:52:00
10:52 AM,36.0,23.0,59,29.94,10.0,North,8.1,-,N/A,,Overcast,350,2013-02-05 15:52:00
11:52 AM,37.0,23.0,57,29.92,10.0,East,3.5,-,N/A,,Mostly Cloudy,80,2013-02-05 16:52:00
12:52 PM,39.0,24.1,55,29.88,10.0,ENE,4.6,-,N/A,,Overcast,60,2013-02-05 17:52:00
1:52 PM,39.9,25.0,55,29.87,10.0,Calm,Calm,-,N/A,,Overcast,0,2013-02-05 18:52:00
2:52 PM,41.0,26.1,55,29.86,10.0,Calm,Calm,-,N/A,,Overcast,0,2013-02-05 19:52:00
3:52 PM,41.0,26.1,55,29.86,10.0,NE,5.8,-,N/A,,Overcast,40,2013-02-05 20:52:00
4:52 PM,39.0,27.0,62,29.87,10.0,NNE,4.6,-,N/A,,Mostly Cloudy,30,2013-02-05 21:52:00
5:52 PM,37.0,27.0,67,29.88,10.0,ENE,4.6,-,N/A,,Mostly Cloudy,60,2013-02-05 22:52:00
6:52 PM,34.0,26.1,73,29.89,10.0,Calm,Calm,-,N/A,,Mostly Cloudy,0,2013-02-05 23:52:00
7:52 PM,37.0,27.0,67,29.90,10.0,Calm,Calm,-,N/A,,Overcast,0,2013-02-06 00:52:00
8:52 PM,33.1,27.0,78,29.91,10.0,Calm,Calm,-,N/A,,Overcast,0,2013-02-06 01:52:00
9:52 PM,33.1,27.0,78,29.93,10.0,NNW,4.6,-,N/A,,Mostly Cloudy,330,2013-02-06 02:52:00
10:52 PM,34.0,28.9,82,29.94,9.0,NE,3.5,-,N/A,,Overcast,40,2013-02-06 03:52:00
11:52 PM,34.0,28.9,82,29.95,8.0,North,3.5,-,N/A,,Overcast,10,2013-02-06 04:52:00